(78) Diana
ephemeris date magn radius delta ra dec elong phase
Today14 Jun 202614.03.128 AU2.755 AU22h51m-09°22'102.0°18.5°
Opposition27 Aug 202612.43.068 AU2.058 AU22h23m-09°49'179.7°0.1°
(78) Diana - 2026-06-14
astro.vanbuitenen.nl


 
-1 year
-1 month
-1 day
Now
+1 day
+1 month
+1 year

The interactive orbit chart above shows the body's path through the solar system and its position at the given date. Green and blue lines are shown perpendicular to the ecliptic plane: Green if the path is above the ecliptic plane, blue if it is below. (Left-click and drag to rotate the view; Right-click and drag to move the view; Use scroll wheel to zoom in our out.)

The orbital elements of Diana are:

            e (Eccentricity)                : 0.2035330
            a (Semimajor axis)              : 2.6225476
            i (Inclination)                 : 8.67949
            Ω (Longitude of ascending node) : 333.28392
            ω (Argument of perihelion)      : 153.31917
            M (Mean anomaly)                : 201.42507
            Epoch                           : 2026 Jun 09

            L (Longitude of perihelion)     : 306.86695
            B (Latitude of perihelion)      : 3.88535
            P (Orbital period in years)     : 4.25            
        

The light curve chart below shows the estimated development of the minor planet's magnitude.


The all-sky chart below shows the path of the minor planet over the same period as the light curve. The current position is marked yellow.





The following chart shows the path of the minor planet in the next few days. The field of view is optimized for (~10x50) binoculars and finderscopes.




Ephemerides:
Date       Time       RA (2000)    DEC (2000)    delta   radius  elong  phase   PA    magn
2026-06-14 00:00 UT   22 51 23.2   -09 22 22     2.755    3.128  102.0   18.5   248   14.0 
2026-06-14 08:10 UT   22 51 30.4   -09 21 15     2.750    3.128  102.3   18.5   248   14.0 
2026-06-15 00:00 UT   22 51 44.1   -09 19 07     2.740    3.127  102.8   18.5   248   14.0 
2026-06-16 00:00 UT   22 52 04.0   -09 15 58     2.726    3.127  103.7   18.4   248   14.0 
2026-06-17 00:00 UT   22 52 22.8   -09 12 55     2.712    3.126  104.6   18.3   248   14.0 
2026-06-18 00:00 UT   22 52 40.4   -09 09 57     2.698    3.125  105.4   18.3   248   14.0 
2026-06-19 00:00 UT   22 52 57.0   -09 07 05     2.683    3.125  106.3   18.2   248   13.9 
2026-06-20 00:00 UT   22 53 12.5   -09 04 19     2.669    3.124  107.2   18.1   248   13.9 
2026-06-21 00:00 UT   22 53 26.8   -09 01 39     2.655    3.124  108.1   18.0   248   13.9 
2026-06-22 00:00 UT   22 53 40.0   -08 59 04     2.641    3.123  109.0   17.9   248   13.9 
2026-06-23 00:00 UT   22 53 52.0   -08 56 36     2.627    3.122  109.9   17.8   248   13.9 
2026-06-24 00:00 UT   22 54 02.9   -08 54 13     2.613    3.122  110.8   17.7   248   13.9 
2026-06-25 00:00 UT   22 54 12.7   -08 51 57     2.600    3.121  111.7   17.6   248   13.9 
2026-06-26 00:00 UT   22 54 21.2   -08 49 47     2.586    3.120  112.6   17.5   248   13.8 
2026-06-27 00:00 UT   22 54 28.6   -08 47 42     2.572    3.120  113.5   17.4   248   13.8 
2026-06-28 00:00 UT   22 54 34.7   -08 45 44     2.559    3.119  114.4   17.3   248   13.8 
2026-06-29 00:00 UT   22 54 39.7   -08 43 52     2.545    3.118  115.3   17.1   248   13.8 
2026-06-30 00:00 UT   22 54 43.4   -08 42 07     2.532    3.118  116.2   17.0   248   13.8 
2026-07-01 00:00 UT   22 54 45.9   -08 40 28     2.519    3.117  117.2   16.9   248   13.8 
2026-07-02 00:00 UT   22 54 47.2   -08 38 55     2.506    3.116  118.1   16.7   248   13.7 
2026-07-03 00:00 UT   22 54 47.2   -08 37 28     2.492    3.116  119.1   16.6   248   13.7 
2026-07-04 00:00 UT   22 54 46.0   -08 36 08     2.480    3.115  120.0   16.4   248   13.7 
2026-07-05 00:00 UT   22 54 43.5   -08 34 55     2.467    3.114  121.0   16.3   248   13.7 
2026-07-06 00:00 UT   22 54 39.7   -08 33 48     2.454    3.113  121.9   16.1   248   13.7 
2026-07-07 00:00 UT   22 54 34.6   -08 32 48     2.441    3.113  122.9   15.9   249   13.7 
2026-07-08 00:00 UT   22 54 28.3   -08 31 54     2.429    3.112  123.9   15.7   249   13.6 
2026-07-09 00:00 UT   22 54 20.6   -08 31 07     2.417    3.111  124.8   15.6   249   13.6 
2026-07-10 00:00 UT   22 54 11.7   -08 30 27     2.404    3.111  125.8   15.4   249   13.6 
2026-07-11 00:00 UT   22 54 01.4   -08 29 53     2.392    3.110  126.8   15.2   249   13.6 
2026-07-12 00:00 UT   22 53 49.8   -08 29 26     2.380    3.109  127.8   15.0   249   13.6 
2026-07-13 00:00 UT   22 53 37.0   -08 29 06     2.369    3.108  128.8   14.8   249   13.6 
2026-07-14 00:00 UT   22 53 22.7   -08 28 52     2.357    3.108  129.8   14.6   249   13.5 


    Terminology:
            
    delta:  distance between minor planet and earth in AU
    radius: distance between minor planet and sun in AU
    magn:   magnitude (brightness) estimate    
    ra:     right ascension in hours (24h = 360deg)
    dec:    declination in degrees
    elong:  elongation in degrees (angle sun-earth-minor planet)    
    phase:  phase angle in degrees (angle sun-minor planet-earth)        
    AU:     Astronomical Unit (mean distance between earth and sun: 149597870.7 km
    

Orbital elements provided by the MPC (Minor Planet Center).
Calculations by a modified version of AAPlus, a C# implementation of the AA+ project by PJ Naughter from the algorithms presented in the book "Astronomical Algorithms" by Jean Meeus.
NGC2000 dso catalog and star labels from VizieR as provided by the Strasbourg astronomical Data Center.
Tycho2 catalog from the ESO archive.